KB9VKQ-13 Weather Reports


Display with metric or nautical units.
time (UTC)temp
F
wind
direction
speed
MPH
gust
MPH
rain 1hr
in
rain 24hr
in
rain mn
in
humidity
%
barometer
mb
20260504081107 58 307 11.0 14.0 0.02 0.07 0.09
20260504050707 57 191 3.0 6.0 0.00 0.07 0.00
20260504045707 57 214 3.0 6.0 0.00 0.00 0.07
20260504044637 57 211 3.0 5.0 0.00 0.00 0.07
20260504043637 56 225 1.0 5.0 0.00 0.00 0.07
20260504042607 55 150 1.0 4.0 0.00 0.00 0.07
20260504041537 55 68 2.0 6.0 0.00 0.00 0.07
20260504040537 56 65 2.0 5.0 0.00 0.00 0.07
20260504035537 57 179 2.0 8.0 0.00 0.00 0.07
20260504034507 57 111 6.0 8.0 0.00 0.00 0.07
20260504033437 58 91 6.0 10.0 0.00 0.00 0.07
20260504032437 59 84 5.0 13.0 0.00 0.00 0.07
20260504031437 60 66 8.0 16.0 0.00 0.00 0.07
20260504030407 60 23 6.0 9.0 0.00 0.00 0.07
20260504025407 60 191 1.0 7.0 0.05 0.00 0.07
20260504024337 59 211 3.0 6.0 0.07 0.00 0.07
20260504023307 59 177 3.0 8.0 0.07 0.00 0.07
20260504022307 59 229 5.0 7.0 0.07 0.00 0.07
20260504021307 60 217 4.0 8.0 0.07 0.00 0.07
20260504020307 60 222 4.0 13.0 0.07 0.00 0.07
20260504015307 63 240 6.0 9.0 0.02 0.00 0.02
20260504014307 63 259 2.0 11.0 0.00 0.00 0.00
20260504013237 63 240 6.0 13.0 0.00 0.00 0.00
20260504012237 63 239 7.0 13.0 0.00 0.00 0.00
20260504011237 64 255 9.0 12.0 0.00 0.00 0.00
20260504010237 64 236 6.0 11.0 0.00 0.00 0.00
20260504005237 64 210 6.0 10.0 0.00 0.00 0.00
20260504004207 65 195 7.0 12.0 0.00 0.00 0.00
20260504003207 66 249 5.0 11.0 0.00 0.00 0.00
20260504002137 67 224 7.0 13.0 0.00 0.00 0.00
20260504001137 69 257 6.0 16.0 0.00 0.00 0.00
20260504000107 71 226 7.0 16.0 0.00 0.00 0.00
20260503235037 72 201 10.0 15.0 0.00 0.00 0.00
20260503234007 72 229 10.0 17.0 0.00 0.00 0.00
20260503232937 73 240 8.0 14.0 0.00 0.00 0.00
20260503231907 74 246 7.0 14.0 0.00 0.00 0.00
20260503230907 74 212 7.0 16.0 0.00 0.00 0.00
20260503225907 73 250 10.0 16.0 0.00 0.00 0.00
20260503224837 74 250 8.0 17.0 0.00 0.00 0.00
20260503223807 73 235 7.0 21.0 0.00 0.00 0.00
20260503222737 73 232 10.0 22.0 0.00 0.00 0.00
20260503221737 72 250 12.0 25.0 0.00 0.00 0.00
20260503220707 73 219 12.0 24.0 0.00 0.00 0.00
20260503215706 73 211 14.0 22.0 0.00 0.00 0.00
20260503214636 72 252 12.0 21.0 0.00 0.00 0.00
20260503213636 72 225 10.0 23.0 0.00 0.00 0.00
20260503212606 69 246 11.0 26.0 0.00 0.00 0.00
20260503211606 70 232 11.0 25.0 0.00 0.00 0.00
20260503210536 72 242 11.0 27.0 0.00 0.00 0.00
20260503205506 71 222 16.0 25.0 0.00 0.00 0.00
20260503204506 72 208 13.0 28.0 0.00 0.00 0.00
20260503203436 72 233 8.0 20.0 0.00 0.00 0.00
20260503202436 70 186 18.0 28.0 0.00 0.00 0.00
20260503201406 71 226 13.0 25.0 0.00 0.00 0.00
20260503200336 71 218 13.0 25.0 0.00 0.00 0.00
20260503195336 71 238 13.0 26.0 0.00 0.00 0.00
20260503194306 69 271 11.0 20.0 0.00 0.00 0.00
20260503193306 71 235 9.0 25.0 0.00 0.00 0.00
20260503192306 71 218 10.0 22.0 0.00 0.00 0.00
20260503191236 70 246 10.0 22.0 0.00 0.00 0.00
20260503190236 69 232 11.0 23.0 0.00 0.00 0.00
20260503185236 69 249 11.0 23.0 0.00 0.00 0.00
20260503184206 69 224 9.0 24.0 0.00 0.00 0.00
20260503183136 69 253 11.0 22.0 0.00 0.00 0.00
20260503182136 68 231 11.0 21.0 0.00 0.00 0.00
20260503181136 67 222 13.0 22.0 0.00 0.00 0.00
20260503180106 67 236 13.0 28.0 0.00 0.00 0.00
20260503175106 67 228 11.0 28.0 0.00 0.00 0.00
20260503174036 66 231 12.0 24.0 0.00 0.00 0.00
20260503173036 66 233 11.0 22.0 0.00 0.00 0.00
20260503172036 65 235 10.0 22.0 0.00 0.00 0.00
20260503171036 65 264 14.0 26.0 0.00 0.00 0.00
20260503150606 58 233 9.0 22.0 0.00 0.00 0.00
20260503131306 51 228 10.0 15.0 0.00 0.00 0.00
20260503130236 50 242 8.0 14.0 0.00 0.00 0.00
20260503120106 46 211 9.0 14.0 0.00 0.00 0.00